DW5963 Weather Reports


Display with metric or nautical units.
time (UTC)temp
F
wind
direction
speed
MPH
gust
MPH
rain 1hr
in
rain 24hr
in
rain mn
in
humidity
%
barometer
mb
20260505023004 39 360 14.0 0.0 0.00 0.00 0.00 50 1013.6
20260505022503 40 360 15.0 0.0 0.00 0.00 0.00 49 1013.5
20260505022006 40 360 14.0 0.0 0.00 0.00 0.00 49 1013.4
20260505021502 40 360 12.0 0.0 0.00 0.00 0.00 49 1013.2
20260505021001 40 360 12.0 0.0 0.00 0.00 0.00 49 1013.2
20260505020501 41 360 12.0 0.0 0.00 0.00 0.00 48 1013.1
20260505020105 41 360 13.0 0.0 0.00 0.00 0.00 48 1013.0
20260505015501 41 360 13.0 0.0 0.00 0.00 0.00 48 1012.9
20260505015001 41 360 13.0 0.0 0.00 0.00 0.00 47 1012.8
20260505014607 41 360 13.0 0.0 0.00 0.00 0.00 47 1012.8
20260505014103 41 360 14.0 0.0 0.00 0.00 0.00 47 1012.6
20260505013558 42 360 15.0 0.0 0.00 0.00 0.00 47 1012.5
20260505013058 42 360 14.0 0.0 0.00 0.00 0.00 46 1012.4
20260505012557 42 360 15.0 0.0 0.00 0.00 0.00 46 1012.4
20260505012056 42 360 16.0 0.0 0.00 0.00 0.00 45 1012.3
20260505011556 42 360 15.0 0.0 0.00 0.00 0.00 45 1012.2
20260505011054 42 360 15.0 0.0 0.00 0.00 0.00 46 1012.1
20260505010554 43 360 16.0 0.0 0.00 0.00 0.00 46 1012.0
20260505010055 43 360 17.0 0.0 0.00 0.00 0.00 45 1011.9
20260505005053 43 360 16.0 0.0 0.00 0.00 0.00 45 1011.8
20260505004556 43 360 17.0 0.0 0.00 0.00 0.00 45 1011.8
20260505004055 43 360 17.0 0.0 0.00 0.00 0.00 45 1011.8
20260505003551 43 360 17.0 0.0 0.00 0.00 0.00 45 1011.7
20260505003053 43 360 17.0 0.0 0.00 0.00 0.00 45 1011.7
20260505002556 43 360 16.0 0.0 0.00 0.00 0.00 45 1011.7
20260505002051 44 360 16.0 0.0 0.00 0.00 0.00 44 1011.7
20260505001550 44 360 18.0 0.0 0.00 0.00 0.00 44 1011.6
20260505001049 44 360 19.0 0.0 0.00 0.00 0.00 43 1011.5
20260505000549 45 360 19.0 0.0 0.00 0.00 0.00 43 1011.5
20260505000055 45 360 19.0 0.0 0.00 0.00 0.00 43 1011.5
20260504235051 46 360 19.0 0.0 0.00 0.00 0.00 42 1011.4
20260504234550 45 360 20.0 0.0 0.00 0.00 0.00 43 1011.4
20260504234049 46 360 20.0 0.0 0.00 0.00 0.00 43 1011.2
20260504233549 45 360 20.0 0.0 0.00 0.00 0.00 43 1011.1
20260504233049 45 360 19.0 0.0 0.00 0.00 0.00 42 1011.2
20260504232651 47 360 18.0 0.0 0.00 0.00 0.00 41 1011.1
20260504232049 47 360 18.0 0.0 0.00 0.00 0.00 41 1011.0
20260504231547 48 360 19.0 0.0 0.00 0.00 0.00 40 1011.0
20260504231046 48 360 18.0 0.0 0.00 0.00 0.00 40 1010.9
20260504230549 48 360 19.0 0.0 0.00 0.00 0.00 40 1010.7
20260504230050 47 360 18.0 0.0 0.00 0.00 0.00 41 1010.6
20260504225045 48 360 18.0 0.0 0.00 0.00 0.00 42 1010.6
20260504224548 48 360 20.0 0.0 0.00 0.00 0.00 41 1010.6
20260504224048 48 360 19.0 0.0 0.00 0.00 0.00 39 1010.5
20260504223547 49 360 17.0 0.0 0.00 0.00 0.00 40 1010.4
20260504223045 48 360 17.0 0.0 0.00 0.00 0.00 40 1010.5
20260504222547 48 360 18.0 0.0 0.00 0.00 0.00 41 1010.6
20260504222044 49 360 17.0 0.0 0.00 0.00 0.00 39 1010.4
20260504221545 49 360 16.0 0.0 0.00 0.00 0.00 41 1010.4
20260504221044 49 360 16.0 0.0 0.00 0.00 0.00 41 1010.4
20260504220544 49 360 17.0 0.0 0.00 0.00 0.00 42 1010.4
20260504220045 48 360 18.0 0.0 0.00 0.00 0.00 41 1010.4
20260504215045 48 360 19.0 0.0 0.00 0.00 0.00 42 1010.5
20260504214553 48 360 17.0 0.0 0.00 0.00 0.00 42 1010.3
20260504214044 48 360 15.0 0.0 0.00 0.00 0.00 41 1010.3
20260504213544 51 360 16.0 0.0 0.00 0.00 0.00 38 1010.4
20260504213043 49 360 15.0 0.0 0.00 0.00 0.00 42 1010.4
20260504212543 47 360 14.0 0.0 0.00 0.00 0.00 46 1010.4
20260504212045 47 360 15.0 0.0 0.00 0.00 0.00 49 1010.5
20260504211543 46 360 14.0 0.0 0.00 0.00 0.00 51 1010.6
20260504211043 46 360 14.0 0.0 0.00 0.00 0.00 50 1010.6
20260504210543 46 360 13.0 0.0 0.00 0.00 0.00 52 1010.6
20260504210055 45 360 13.0 0.0 0.00 0.00 0.00 53 1010.7
20260504205042 45 360 14.0 0.0 0.00 0.00 0.00 53 1010.8
20260504204557 45 360 15.0 0.0 0.00 0.00 0.00 51 1010.8
20260504204042 45 360 15.0 0.0 0.00 0.00 0.00 51 1010.7
20260504203542 45 360 15.0 0.0 0.00 0.00 0.00 51 1010.6
20260504203044 45 360 15.0 0.0 0.00 0.00 0.00 51 1010.6
20260504202542 45 360 15.0 0.0 0.00 0.00 0.00 51 1010.7
20260504202042 45 360 16.0 0.0 0.00 0.00 0.00 51 1010.6
20260504201541 45 360 16.0 0.0 0.00 0.00 0.00 50 1010.6
20260504201041 45 360 16.0 0.0 0.00 0.00 0.00 51 1010.6
20260504200541 45 360 16.0 0.0 0.00 0.00 0.00 50 1010.6
20260504200040 45 360 16.0 0.0 0.00 0.00 0.00 50 1010.6
20260504195041 45 360 15.0 0.0 0.00 0.00 0.00 49 1010.5
20260504194539 46 360 16.0 0.0 0.00 0.00 0.00 49 1010.6
20260504194039 45 360 16.0 0.0 0.00 0.00 0.00 49 1010.6
20260504193538 45 360 15.0 0.0 0.00 0.00 0.00 48 1010.5
20260504193038 45 360 15.0 0.0 0.00 0.00 0.00 47 1010.5
20260504192537 46 360 16.0 0.0 0.00 0.00 0.00 46 1010.4
20260504192037 46 360 18.0 0.0 0.00 0.00 0.00 45 1010.4
20260504191537 47 360 17.0 0.0 0.00 0.00 0.00 43 1010.3
20260504191037 47 360 16.0 0.0 0.00 0.00 0.00 45 1010.2
20260504190537 46 360 16.0 0.0 0.00 0.00 0.00 46 1010.3
20260504190036 46 360 15.0 0.0 0.00 0.00 0.00 44 1010.3
20260504185040 46 360 14.0 0.0 0.00 0.00 0.00 46 1010.3
20260504184537 46 360 14.0 0.0 0.00 0.00 0.00 47 1010.3
20260504184037 45 360 14.0 0.0 0.00 0.00 0.00 47 1010.3
20260504183537 45 360 14.0 0.0 0.00 0.00 0.00 48 1010.3
20260504183036 45 360 14.0 0.0 0.00 0.00 0.00 48 1010.4
20260504182536 45 360 14.0 0.0 0.00 0.00 0.00 48 1010.3
20260504182037 45 360 14.0 0.0 0.00 0.00 0.00 49 1010.4
20260504181536 44 360 15.0 0.0 0.00 0.00 0.00 49 1010.4
20260504181036 44 360 16.0 0.0 0.00 0.00 0.00 48 1010.3
20260504180536 45 360 17.0 0.0 0.00 0.00 0.00 48 1010.3
20260504180036 44 360 16.0 0.0 0.00 0.00 0.00 49 1010.4
20260504175035 44 360 17.0 0.0 0.00 0.00 0.00 48 1010.2
20260504174537 44 360 17.0 0.0 0.00 0.00 0.00 47 1010.3
20260504174034 45 360 18.0 0.0 0.00 0.00 0.00 46 1010.1
20260504173533 46 360 18.0 0.0 0.00 0.00 0.00 45 1010.1
20260504173039 46 360 18.0 0.0 0.00 0.00 0.00 48 1010.0
20260504172534 45 360 19.0 0.0 0.00 0.00 0.00 48 1010.1
20260504172032 45 360 20.0 0.0 0.00 0.00 0.00 48 1010.1
20260504171532 45 360 20.0 0.0 0.00 0.00 0.00 48 1009.9
20260504171033 45 360 20.0 0.0 0.00 0.00 0.00 51 1009.9
20260504170532 45 360 18.0 0.0 0.00 0.00 0.00 52 1009.9
20260504151023 44 360 16.0 0.0 0.00 0.00 0.00 63 1008.9
20260504150523 44 360 16.0 0.0 0.00 0.00 0.00 63 1008.9
20260504141020 45 360 12.0 0.0 0.00 0.00 0.00 58 1008.7
20260504140521 45 360 11.0 0.0 0.00 0.00 0.00 59 1008.7
20260504130519 41 360 12.0 0.0 0.00 0.00 0.00 65 1008.6
20260504110558 43 360 13.0 0.0 0.00 0.00 0.00 57 1007.1
20260504100550 45 360 13.0 0.0 0.00 0.00 0.00 53 1006.6
20260504081534 49 360 13.0 0.0 0.00 0.00 0.00 46 1005.9
20260504081030 49 360 12.0 0.0 0.00 0.00 0.00 46 1005.7
20260504080529 49 360 11.0 0.0 0.00 0.00 0.00 47 1005.6
20260504050511 56 360 13.0 0.0 0.00 0.00 0.00 40 1003.3
20260504050012 56 360 12.0 0.0 0.00 0.00 0.00 40 1003.3
20260504045010 56 360 12.0 0.0 0.00 0.00 0.00 41 1003.0
20260504044514 56 360 12.0 0.0 0.00 0.00 0.00 43 1003.0
20260504044010 56 360 12.0 0.0 0.00 0.00 0.00 44 1003.1
20260504043510 56 360 12.0 0.0 0.00 0.00 0.00 44 1003.2
20260504043013 56 360 13.0 0.0 0.00 0.00 0.00 44 1003.3
20260504042509 57 360 15.0 0.0 0.00 0.00 0.00 43 1003.3
20260504042009 57 360 13.0 0.0 0.00 0.00 0.00 42 1003.2
20260504041532 57 360 12.0 0.0 0.00 0.00 0.00 43 1003.1
20260504041009 58 360 12.0 0.0 0.00 0.00 0.00 43 1003.1
20260504040510 58 360 13.0 0.0 0.00 0.00 0.00 42 1002.9
20260504040015 58 360 13.0 0.0 0.00 0.00 0.00 41 1002.7
20260504035010 58 360 11.0 0.0 0.00 0.00 0.00 40 1002.5
20260504034511 59 360 11.0 0.0 0.00 0.00 0.00 40 1002.3
20260504034009 59 360 13.0 0.0 0.00 0.00 0.00 39 1002.1
20260504033509 60 360 15.0 0.0 0.00 0.00 0.00 38 1001.9
20260504033009 60 360 16.0 0.0 0.00 0.00 0.00 38 1001.8
20260504032511 61 360 17.0 0.0 0.00 0.00 0.00 38 1001.7
20260504032009 61 360 18.0 0.0 0.00 0.00 0.00 37 1001.5
20260504031509 61 360 21.0 0.0 0.00 0.00 0.00 37 1001.4
20260504031008 62 360 23.0 0.0 0.00 0.00 0.00 36 1001.2
20260504030508 62 360 21.0 0.0 0.00 0.00 0.00 36 1000.9
20260504030008 64 360 17.0 0.0 0.00 0.00 0.00 34 1000.8
20260504025007 69 360 13.0 0.0 0.00 0.00 0.00 32 999.8
20260504024506 68 360 13.0 0.0 0.00 0.00 0.00 33 999.8
20260504024006 69 360 14.0 0.0 0.00 0.00 0.00 32 999.8
20260504023507 68 360 14.0 0.0 0.00 0.00 0.00 33 999.7